[[{"header":{"parameterUnit":"m.s-1","parameterCategory":1,"la1":30.2991,"la2":30.254,"lo1":-89.0895,"lo2":-89.0444,"dy":0.0017,"dx":0.0017,"nx":28,"ny":28,"refTime":"2024-04-16T03:00:00:Z","depth":0,"parameterNumber":2,"parameterNumberName":"U-component_of_WINDS"},"data":[0,0,0,0,0,0,0,0,0,0,0,0,0,0,0,0,0,0,0,0,0,0,0,0,0,0,0,0,0,0,0,0,0,0,0,0,0,0,0,0,0,0,0,0,0,0,0,0,0,0,0,0,0,0,0,0,0,0,-4.6128,-4.613,0,-4.6293,-4.6295,-4.6297,-4.6328,-4.6327,-4.6326,-4.6325,-4.6495,-4.6501,-4.6506,0,0,0,0,0,0,0,0,0,0,0,0,0,-4.5842,-4.5847,-4.6128,-4.613,-4.6132,-4.6293,-4.6295,-4.6297,-4.6329,-4.6327,-4.6325,-4.6324,-4.6493,-4.65,-4.6507,0,0,0,0,0,0,0,0,0,0,0,0,0,-4.5983,-4.5849,-4.6127,-4.6167,-4.6172,-4.6292,-4.6295,-4.6298,-4.6329,-4.6327,-4.6325,-4.6323,-4.6491,-4.6499,-4.6508,-4.6601,0,0,-4.6534,-4.6538,0,0,0,0,0,0,0,0,-4.5975,-4.5993,-4.6159,-4.6164,-4.617,-4.6288,-4.6257,-4.64,-4.6329,-4.6269,-4.6325,-4.6322,-4.6428,-4.6442,-4.6477,-4.6609,-4.6616,-4.6535,-4.654,-4.6544,-4.6547,0,0,0,0,0,0,0,-4.5965,-4.5986,-4.6193,-4.6161,-4.6168,-4.6177,-4.6195,-4.6284,-4.6358,-4.6275,-4.6277,-4.6296,-4.6431,-4.6469,-4.6481,-4.6619,-4.6535,-4.6543,-4.6548,-4.6551,-4.6836,-4.6839,0,0,0,0,0,0,-4.5948,-4.5978,-4.6188,-4.6198,-4.6066,-4.6184,-4.6204,-4.6252,-4.6357,-4.6371,-4.6298,-4.6297,-4.6455,-4.6471,-4.6487,-4.6602,-4.6544,-4.6552,-4.6557,-4.6834,-4.6837,-4.6839,0,0,0,0,0,0,-4.5942,-4.5966,-4.6181,-4.6089,-4.6117,-4.6191,-4.6245,-4.6257,-4.6294,-4.6374,-4.6388,-4.6323,-4.6454,-4.6475,-4.6573,-4.6609,-4.6556,-4.6564,-4.6831,-4.6835,-4.6838,-4.6833,0,0,0,0,0,0,-4.5933,-4.5964,-4.5999,-4.6089,-4.6122,-4.6262,-4.6247,-4.6261,-4.6309,-4.631,-4.6401,-4.6415,-4.6454,-4.6559,-4.6581,-4.662,-4.6571,-4.6828,-4.6833,-4.6837,-4.683,-4.6836,-4.6841,0,0,0,0,0,-4.5923,-4.5991,-4.6001,-4.6026,-4.6167,-4.6264,-4.6283,-4.6326,-4.6312,-4.6348,-4.64,-4.6412,-4.6602,-4.6569,-4.6594,-4.6636,-4.6826,-4.6831,-4.6837,-4.6828,-4.6835,-4.6841,0,0,0,0,0,0,-4.5903,-4.6004,-4.6015,-4.6114,-4.6181,-4.6269,-4.6316,-4.6332,-4.6404,-4.6402,-4.6454,-4.6474,-4.6568,-4.6613,-4.6574,-4.6732,-4.6713,-4.6724,-4.6698,-4.6706,-4.6711,-4.6697,-4.6578,0,0,0,0,0,-4.591,-4.598,-4.6065,-4.6144,-4.6177,-4.6241,-4.6285,-4.6313,-4.6384,-4.6412,-4.6471,-4.654,-4.6615,-4.6664,-4.6738,-4.6839,-4.6859,-4.688,-4.6885,-4.6889,-4.6897,-4.6954,-4.6964,-4.6857,-4.6857,-4.6857,0,0,-4.5925,-4.5989,-4.603,-4.6142,-4.6196,-4.6268,-4.6264,-4.634,-4.6394,-4.6424,-4.6518,-4.6565,-4.6645,-4.6745,-4.6792,-4.6784,-4.6932,-4.6896,-4.6899,-4.6904,-4.696,-4.697,-4.6979,-4.6861,-4.686,-4.6859,0,0,-4.5989,-4.6045,-4.6117,-4.6172,-4.6255,-4.6298,-4.6315,-4.6403,-4.6434,-4.653,-4.6554,-4.662,-4.6749,-4.6805,-4.6851,-4.694,-4.6953,-4.6963,-4.6989,-4.7044,-4.7052,-4.706,-4.709,-4.7101,-4.6971,-4.6971,-4.6971,0,-4.5997,-4.6105,-4.6152,-4.6227,-4.6276,-4.6307,-4.6381,-4.6433,-4.6535,-4.6569,-4.656,-4.6723,-4.678,-4.6892,-4.6914,-4.6951,-4.6972,-4.695,-4.7047,-4.7056,-4.7063,-4.7093,-4.7104,-4.6971,-4.6971,-4.6971,-4.6971,0,-4.6111,-4.6186,-4.6235,-4.6332,-4.6387,-4.6462,-4.652,-4.6571,-4.6595,-4.6639,-4.6738,-4.6807,-4.6896,-4.6926,-4.695,-4.7043,-4.7036,-4.7037,-4.7019,-4.7073,-4.7101,-4.7113,-4.6972,-4.6972,-4.6971,-4.6971,0,0,-4.6162,-4.6287,-4.6304,-4.6349,-4.6444,-4.6503,-4.6581,-4.6667,-4.6708,-4.678,-4.6845,-4.6955,-4.6957,-4.7009,-4.7041,-4.709,-4.7154,-4.7085,-4.7088,-4.7093,-4.726,-4.7256,-4.7268,-4.7166,-4.7168,-4.717,-4.7252,0,-4.6236,-4.6371,-4.6417,-4.653,-4.66,-4.6632,-4.6699,-4.6766,-4.681,-4.6877,-4.6927,-4.7003,-4.7001,-4.7032,-4.7082,-4.7135,-4.7188,-4.7131,-4.7226,-4.7229,-4.7201,-4.7283,-4.7279,-4.7353,-4.7264,-4.7266,-4.7267,0,-4.6338,-4.641,-4.6529,-4.6617,-4.6648,-4.6707,-4.679,-4.6854,-4.6931,-4.696,-4.7019,-4.7048,-4.7131,-4.7111,-4.7226,-4.7186,-4.7229,-4.7262,-4.7266,-4.7273,-4.7248,-4.7291,-4.7378,-4.7388,-4.7285,-4.7284,-4.7283,0,-4.636,-4.6488,-4.6576,-4.6614,-4.6719,-4.676,-4.6805,-4.688,-4.693,-4.7004,-4.7037,-4.712,-4.7165,-4.7229,-4.7281,-4.7262,-4.7391,-4.7375,-4.7417,-4.7415,-4.7439,-4.7436,-4.7531,-4.7472,-4.7471,-4.7471,-4.7471,0,-4.6435,-4.6506,-4.6588,-4.6641,-4.6723,-4.6777,-4.6856,-4.6904,-4.6971,-4.7036,-4.7071,-4.7131,-4.7197,-4.7266,-4.7307,-4.7396,-4.7417,-4.7442,-4.7452,-4.7437,-4.7433,-4.7463,-4.7458,-4.7474,-4.7474,-4.7473,-4.7472,0,-4.6472,-4.653,-4.6627,-4.6719,-4.6744,-4.68,-4.6879,-4.6934,-4.6981,-4.7062,-4.7085,-4.7159,-4.7242,-4.7301,-4.7409,-4.7437,-4.7531,-4.7542,-4.7504,-4.7508,-4.7546,-4.754,-4.7661,-4.7679,-4.7609,-4.761,-4.761,0,-4.6514,-4.657,-4.6668,-4.6713,-4.6759,-4.6832,-4.6883,-4.6939,-4.6991,-4.7084,-4.7127,-4.7213,-4.7284,-4.7417,-4.7481,-4.7564,-4.7575,-4.7612,-4.7588,-4.7571,-4.7573,-4.7568,-4.7573,-4.7614,-4.7615,-4.7615,-4.7615,0,-4.6583,-4.6609,-4.668,-4.6762,-4.6822,-4.6889,-4.6957,-4.6993,-4.7062,-4.7118,-4.7204,-4.7259,-4.737,-4.7455,-4.7544,-4.7593,-4.7616,-4.7623,-4.7637,-4.7621,-4.7596,-4.7608,-4.7511,-4.7619,-4.7619,-4.7618,-4.7618,-4.7618,-4.6622,-4.6673,-4.675,-4.6829,-4.6886,-4.6949,-4.7005,-4.7059,-4.7131,-4.7224,-4.7255,-4.7343,-4.7422,-4.7544,-4.7595,-4.7666,-4.7663,-4.7683,-4.7688,-4.7691,-4.7689,-4.7587,-4.7683,-4.7683,-4.7683,-4.7683,-4.7683,0,-4.669,-4.6742,-4.6814,-4.6908,-4.697,-4.6987,-4.7064,-4.7115,-4.7192,-4.7263,-4.7333,-4.7432,-4.7515,-4.7587,-4.7674,-4.7717,-4.773,-4.7738,-4.7733,-4.7744,-4.7688,-4.7666,-4.7726,-4.7726,-4.7726,-4.7726,-4.7726,-4.7726,-4.6732,-4.6819,-4.6855,-4.6971,-4.7023,-4.7109,-4.7152,-4.7211,-4.7267,-4.7376,-4.7445,-4.7492,-4.7563,-4.7656,-4.7734,-4.7753,-4.7782,-4.7787,-4.7809,-4.7753,-4.7748,-4.7743,-4.7723,-4.7794,-4.7794,-4.7859,-4.786,-4.786]},{"header":{"parameterUnit":"m.s-1","parameterCategory":1,"la1":30.2991,"la2":30.254,"lo1":-89.0895,"lo2":-89.0444,"dy":0.0017,"dx":0.0017,"nx":28,"ny":28,"refTime":"2024-04-16T03:00:00:Z","depth":0,"parameterNumber":3,"parameterNumberName":"V-component_of_WINDS"},"data":[0,0,0,0,0,0,0,0,0,0,0,0,0,0,0,0,0,0,0,0,0,0,0,0,0,0,0,0,0,0,0,0,0,0,0,0,0,0,0,0,0,0,0,0,0,0,0,0,0,0,0,0,0,0,0,0,0,0,3.6552,3.6552,0,3.6561,3.6561,3.6561,3.6619,3.662,3.6622,3.6623,3.6627,3.6626,3.6625,0,0,0,0,0,0,0,0,0,0,0,0,0,3.6581,3.6581,3.6552,3.6552,3.6552,3.6561,3.6561,3.6561,3.6619,3.662,3.6622,3.6624,3.6627,3.6626,3.6624,0,0,0,0,0,0,0,0,0,0,0,0,0,3.6577,3.658,3.6552,3.6582,3.6585,3.6561,3.6561,3.6561,3.6618,3.662,3.6622,3.6624,3.6628,3.6626,3.6624,3.6571,0,0,3.6619,3.6618,0,0,0,0,0,0,0,0,3.6577,3.6576,3.6577,3.658,3.6583,3.6591,3.6573,3.6564,3.6618,3.6605,3.6623,3.6625,3.6613,3.6613,3.6609,3.6571,3.6571,3.6619,3.6617,3.6617,3.6616,0,0,0,0,0,0,0,3.6578,3.6576,3.6555,3.6577,3.6581,3.6594,3.6596,3.6572,3.6597,3.6607,3.6611,3.6611,3.6615,3.6611,3.661,3.6571,3.6619,3.6617,3.6616,3.6615,3.6492,3.649,0,0,0,0,0,0,3.6574,3.6576,3.6555,3.6556,3.6585,3.6592,3.6594,3.6586,3.6597,3.6601,3.661,3.6614,3.6613,3.6612,3.661,3.6551,3.6617,3.6615,3.6614,3.6494,3.6492,3.6489,0,0,0,0,0,0,3.6575,3.6572,3.6555,3.6567,3.6566,3.6589,3.658,3.6585,3.6582,3.66,3.6604,3.6601,3.6615,3.6613,3.6581,3.6551,3.6614,3.6613,3.6497,3.6494,3.6491,3.6429,0,0,0,0,0,0,3.6575,3.6572,3.6552,3.6566,3.6565,3.6526,3.6578,3.6584,3.6579,3.6585,3.6593,3.6596,3.6616,3.6584,3.6579,3.655,3.6611,3.65,3.6495,3.6492,3.6434,3.6424,3.6416,0,0,0,0,0,3.6576,3.6532,3.6551,3.6548,3.6541,3.6524,3.6524,3.6549,3.6576,3.6557,3.6569,3.6596,3.6555,3.658,3.6576,3.6545,3.6502,3.6497,3.6492,3.6438,3.6426,3.6416,0,0,0,0,0,0,3.6511,3.6535,3.6555,3.6515,3.6518,3.6534,3.651,3.6535,3.6528,3.6534,3.6564,3.6565,3.6529,3.6534,3.6561,3.6495,3.6533,3.6527,3.6494,3.6482,3.6474,3.6473,3.661,0,0,0,0,0,3.6493,3.6479,3.6499,3.6462,3.6462,3.6486,3.6479,3.6499,3.6502,3.6503,3.6512,3.6513,3.6501,3.6492,3.6481,3.6435,3.6438,3.6412,3.6403,3.6395,3.639,3.6368,3.6357,3.6473,3.6473,3.6473,0,0,3.6454,3.6465,3.6453,3.6449,3.6454,3.6438,3.6486,3.6466,3.6455,3.6499,3.6471,3.6478,3.6481,3.6443,3.6426,3.6445,3.6359,3.6389,3.6383,3.6382,3.6362,3.6351,3.6341,3.647,3.6471,3.6471,0,0,3.6375,3.6381,3.6352,3.6356,3.6363,3.638,3.6373,3.6386,3.6393,3.6366,3.64,3.6386,3.6363,3.6365,3.6363,3.6288,3.6313,3.6283,3.6236,3.6214,3.6205,3.6197,3.6171,3.6162,3.6277,3.6277,3.6277,0,3.6325,3.6304,3.6334,3.6313,3.6311,3.6353,3.6324,3.6325,3.6327,3.6325,3.6347,3.6322,3.6326,3.629,3.6272,3.6268,3.6262,3.6282,3.6204,3.6196,3.6189,3.6165,3.6156,3.6274,3.6274,3.6274,3.6275,0,3.6243,3.6228,3.6203,3.6207,3.6202,3.6177,3.6203,3.6194,3.6214,3.6228,3.6201,3.6208,3.6201,3.6194,3.6212,3.6161,3.6173,3.6199,3.6238,3.6174,3.6152,3.6143,3.6269,3.627,3.6271,3.6272,0,0,3.6122,3.6146,3.6136,3.614,3.6152,3.614,3.6117,3.6113,3.6105,3.6105,3.6087,3.6069,3.6094,3.6092,3.6111,3.6092,3.6034,3.6121,3.6121,3.6105,3.5979,3.5961,3.5949,3.6051,3.605,3.6048,3.598,0,3.6048,3.6012,3.604,3.5999,3.5986,3.6027,3.6007,3.6012,3.6025,3.6015,3.6029,3.6016,3.6049,3.6049,3.6031,3.6045,3.6009,3.605,3.6035,3.6034,3.6034,3.5938,3.5917,3.5852,3.5971,3.597,3.5969,0,3.5956,3.5956,3.5914,3.5932,3.5927,3.5909,3.5909,3.5899,3.5905,3.5916,3.5915,3.594,3.5919,3.5957,3.5929,3.5956,3.5952,3.5957,3.5955,3.5955,3.5998,3.5936,3.5832,3.5823,3.5955,3.5956,3.5957,0,3.5875,3.5864,3.5838,3.584,3.5858,3.5845,3.5852,3.5861,3.5857,3.5856,3.5854,3.585,3.5847,3.5843,3.5867,3.5892,3.5836,3.5875,3.5844,3.5844,3.5831,3.5831,3.5725,3.5826,3.5826,3.5826,3.5826,0,3.579,3.5763,3.5802,3.5786,3.5758,3.579,3.5761,3.5772,3.578,3.5767,3.5801,3.5788,3.5819,3.5809,3.5827,3.5802,3.58,3.5808,3.5813,3.5805,3.5805,3.5803,3.5809,3.5824,3.5824,3.5825,3.5825,0,3.5694,3.5719,3.5694,3.5715,3.572,3.5698,3.5716,3.5702,3.5718,3.5701,3.5699,3.5724,3.5714,3.5737,3.573,3.5742,3.5707,3.5718,3.5705,3.5709,3.5677,3.568,3.5567,3.5555,3.5662,3.5661,3.566,0,3.5639,3.562,3.564,3.5635,3.564,3.5631,3.5628,3.5659,3.5655,3.5662,3.5648,3.5641,3.5638,3.5621,3.5637,3.5632,3.5645,3.5606,3.5644,3.5638,3.5646,3.5647,3.5646,3.5598,3.5596,3.5595,3.5594,0,3.5539,3.5553,3.5548,3.5549,3.5545,3.5546,3.555,3.5543,3.5576,3.557,3.5562,3.5559,3.5554,3.5547,3.5546,3.5553,3.5579,3.5582,3.5575,3.5567,3.5561,3.5566,3.5685,3.5585,3.5586,3.5586,3.5587,3.5587,3.5463,3.5449,3.5461,3.5456,3.5462,3.5465,3.5454,3.547,3.5464,3.5464,3.5482,3.547,3.5479,3.5481,3.5485,3.5476,3.5494,3.5483,3.5481,3.5478,3.5473,3.5562,3.5476,3.5476,3.5477,3.5477,3.5477,0,3.5366,3.5376,3.5371,3.5377,3.5372,3.54,3.5405,3.54,3.539,3.5397,3.5394,3.5385,3.538,3.5397,3.5394,3.5383,3.5395,3.5382,3.5383,3.5384,3.5457,3.5464,3.5372,3.5372,3.5372,3.5372,3.5372,3.5372,3.5315,3.5293,3.5309,3.5291,3.5302,3.5293,3.5294,3.5297,3.5303,3.5293,3.5289,3.5301,3.5312,3.5311,3.5307,3.5312,3.531,3.5292,3.5301,3.5369,3.5379,3.5389,3.5396,3.5291,3.5291,3.523,3.523,3.5229]}]]